Pennock, MN

4:17 PM CST on December 07, 2016 (GMT -0600)
Willmar

Weather History for KBDH - July, 2013

Change the Weather History Date:

Thursday, July 18, 2013

  Actual Average (KBBB) Record (KBBB)
Temperature  
Mean Temperature 84 °F -  
Max Temperature 93 °F 85 °F 99 °F (1964)
Min Temperature 75 °F 63 °F 49 °F (1984)
Cooling Degree Days 19    
Growing Degree Days 34 (Base 50)    
Moisture  
Dew Point 66 °F    
Average Humidity 55    
Maximum Humidity 73    
Minimum Humidity 36    
Precipitation  
Precipitation 0.00 in - - ()
Sea Level Pressure  
Sea Level Pressure 29.94 in    
Wind  
Wind Speed 6 mph (SSW)    
Max Wind Speed 20 mph    
Max Gust Speed 28 mph    
Visibility 10 miles    
Events      
Averages and records for this station are not official NWS values.
T = Trace of Precipitation, MM = Missing Value Source: NWS Daily Summary

Daily Weather History Graph

Daily Weather History Graph

Search for Another Location

Airport or City:

Trip Planner

Search our weather history database for the weather conditions in past years. The results will help you decide how hot, cold, wet, or windy it might be!

Date:

Astronomy

Jul. 18, 2013 Rise Set
Actual Time 5:50 AM CDT 9:02 PM CDT
Civil Twilight 5:15 AM CDT 9:37 PM CDT
Nautical Twilight 4:29 AM CDT 10:23 PM CDT
Astronomical Twilight 3:32 AM CDT 11:19 PM CDT
Moon 4:58 PM CDT (7/18) 1:44 AM CDT (7/18)
Length of Visible Light 16h 22m
Length of Day
15h 11m
Waxing Gibbous, 77% of the Moon is Illuminated
Jul 18
Waxing Gibbous
Jul 22
Full
Jul 29
Last Quarter
Aug 6
New
Aug 14
First Quarter

Hourly Weather History & Observations

Time (CDT) Temp. Heat Index Dew Point Humidity Pressure Visibility Wind Dir Wind Speed Gust Speed Precip Events Conditions
12:15 AM 80.6 °F 83.9 °F 69.8 °F 70% 30.12 in 10.0 mi Calm Calm - N/A   Clear
12:35 AM 80.6 °F 83.2 °F 68.0 °F 65% 30.12 in 10.0 mi South 3.5 mph - N/A   Clear
12:55 AM 78.8 °F - 68.0 °F 69% 30.11 in 10.0 mi Calm Calm - N/A   Clear
1:16 AM 78.8 °F - 68.0 °F 69% 30.11 in 10.0 mi Calm Calm - N/A   Clear
1:35 AM 78.8 °F - 68.0 °F 69% 30.10 in 10.0 mi Calm Calm - N/A   Clear
1:55 AM 78.8 °F - 68.0 °F 69% 30.10 in 10.0 mi Calm Calm - N/A   Clear
2:16 AM 77.0 °F - 66.2 °F 69% 30.10 in 10.0 mi Calm Calm - N/A   Clear
2:35 AM 77.0 °F - 66.2 °F 69% 30.09 in 10.0 mi South 3.5 mph - N/A   Clear
2:56 AM 77.0 °F - 66.2 °F 69% 30.09 in 10.0 mi Calm Calm - N/A   Clear
3:15 AM 77.0 °F - 66.2 °F 69% 30.08 in 10.0 mi South 3.5 mph - N/A   Clear
3:36 AM 75.2 °F - 66.2 °F 73% 30.08 in 10.0 mi SW 3.5 mph - N/A   Clear
3:55 AM 75.2 °F - 66.2 °F 73% 30.07 in 10.0 mi Calm Calm - N/A   Clear
4:15 AM 75.2 °F - 66.2 °F 73% 30.06 in 10.0 mi Calm Calm - N/A   Clear
4:36 AM 75.2 °F - 66.2 °F 73% 30.06 in 10.0 mi Calm Calm - N/A   Clear
4:55 AM 75.2 °F - 66.2 °F 73% 30.05 in 10.0 mi Calm Calm - N/A   Clear
5:15 AM 75.2 °F - 66.2 °F 73% 30.05 in 10.0 mi Calm Calm - N/A   Clear
5:35 AM 75.2 °F - 66.2 °F 73% 30.04 in 10.0 mi Calm Calm - N/A   Clear
5:55 AM 75.2 °F - 66.2 °F 73% 30.04 in 10.0 mi SSW 3.5 mph - N/A   Clear
6:15 AM 75.2 °F - 66.2 °F 73% 30.04 in 10.0 mi Calm Calm - N/A   Clear
6:36 AM 77.0 °F - 66.2 °F 69% 30.04 in 10.0 mi SSW 3.5 mph - N/A   Clear
6:55 AM 77.0 °F - 66.2 °F 69% 30.03 in 10.0 mi SSW 3.5 mph - N/A   Clear
7:15 AM 78.8 °F - 66.2 °F 65% 30.02 in 10.0 mi South 6.9 mph - N/A   Clear
7:36 AM 78.8 °F - 66.2 °F 65% 30.02 in 10.0 mi SSW 5.8 mph - N/A   Clear
7:55 AM 80.6 °F 82.7 °F 66.2 °F 61% 30.01 in 10.0 mi SSW 6.9 mph - N/A   Clear
8:15 AM 80.6 °F 82.7 °F 66.2 °F 61% 30.01 in 10.0 mi SSW 8.1 mph - N/A   Clear
8:36 AM 82.4 °F 84.6 °F 66.2 °F 58% 30.00 in 10.0 mi SSW 9.2 mph 16.1 mph N/A   Clear
8:55 AM 84.2 °F 86.6 °F 66.2 °F 55% 30.00 in 10.0 mi SW 11.5 mph 18.4 mph N/A   Clear
9:15 AM 84.2 °F 86.6 °F 66.2 °F 55% 30.00 in 10.0 mi SW 16.1 mph 21.9 mph N/A   Clear
9:36 AM 86.0 °F 88.2 °F 66.2 °F 51% 29.99 in 10.0 mi SW 13.8 mph 20.7 mph N/A   Clear
9:55 AM 87.8 °F 90.4 °F 66.2 °F 49% 29.99 in 10.0 mi SW 13.8 mph 19.6 mph N/A   Clear
10:15 AM 87.8 °F 90.4 °F 66.2 °F 49% 29.98 in 10.0 mi SW 17.3 mph 21.9 mph N/A   Clear
10:36 AM 87.8 °F 90.4 °F 66.2 °F 49% 29.98 in 10.0 mi SW 13.8 mph 21.9 mph N/A   Clear
10:55 AM 89.6 °F 92.2 °F 66.2 °F 46% 29.97 in 10.0 mi SW 11.5 mph 17.3 mph N/A   Clear
11:15 AM 89.6 °F 93.4 °F 68.0 °F 49% 29.96 in 10.0 mi SW 10.4 mph - N/A   Clear
11:35 AM 89.6 °F 92.2 °F 66.2 °F 46% 29.96 in 10.0 mi SW 15.0 mph 19.6 mph N/A   Clear
11:55 AM 89.6 °F 92.2 °F 66.2 °F 46% 29.95 in 10.0 mi SSW 10.4 mph 17.3 mph N/A   Unknown
12:15 PM 91.4 °F 94.0 °F 66.2 °F 43% 29.95 in 10.0 mi SW 16.1 mph 21.9 mph N/A   Unknown
12:35 PM 91.4 °F 94.0 °F 66.2 °F 43% 29.95 in 10.0 mi SW 17.3 mph 20.7 mph N/A   Unknown
12:55 PM 91.4 °F 94.0 °F 66.2 °F 43% 29.94 in 10.0 mi South 6.9 mph 19.6 mph N/A   Unknown
1:15 PM 93.2 °F 96.2 °F 66.2 °F 41% 29.93 in 10.0 mi SSW 13.8 mph 19.6 mph N/A   Unknown
1:35 PM 93.2 °F 94.9 °F 64.4 °F 38% 29.92 in 10.0 mi SW 18.4 mph 27.6 mph N/A   Unknown
1:55 PM 93.2 °F 94.9 °F 64.4 °F 38% 29.91 in 10.0 mi SSW 13.8 mph 23.0 mph N/A   Unknown
2:15 PM 93.2 °F 94.9 °F 64.4 °F 38% 29.91 in 10.0 mi SSW 11.5 mph 26.5 mph N/A   Unknown
2:35 PM 93.2 °F 94.9 °F 64.4 °F 38% 29.90 in 10.0 mi SW 19.6 mph 26.5 mph N/A   Unknown
2:55 PM 93.2 °F 94.1 °F 62.6 °F 36% 29.89 in 10.0 mi SSW 12.7 mph 25.3 mph N/A   Unknown
3:15 PM 93.2 °F 94.9 °F 64.4 °F 38% 29.89 in 10.0 mi SW 16.1 mph 21.9 mph N/A   Unknown
3:35 PM 93.2 °F 94.1 °F 62.6 °F 36% 29.88 in 10.0 mi SW 17.3 mph 27.6 mph N/A   Unknown
3:55 PM 93.2 °F 94.9 °F 64.4 °F 38% 29.87 in 10.0 mi SW 10.4 mph 21.9 mph N/A   Unknown
4:15 PM 93.2 °F 94.9 °F 64.4 °F 38% 29.86 in 10.0 mi SW 17.3 mph 24.2 mph N/A   Unknown
4:35 PM 93.2 °F 94.9 °F 64.4 °F 38% 29.86 in 10.0 mi SSW 13.8 mph 25.3 mph N/A   Unknown
4:55 PM 93.2 °F 94.9 °F 64.4 °F 38% 29.85 in 10.0 mi SSW 16.1 mph 26.5 mph N/A   Unknown
5:15 PM 93.2 °F 94.9 °F 64.4 °F 38% 29.84 in 10.0 mi SW 15.0 mph 23.0 mph N/A   Unknown
5:35 PM 93.2 °F 94.9 °F 64.4 °F 38% 29.83 in 10.0 mi SSW 15.0 mph 26.5 mph N/A   Unknown
5:55 PM 93.2 °F 94.9 °F 64.4 °F 38% 29.83 in 10.0 mi SW 19.6 mph 27.6 mph N/A   Unknown
6:15 PM 93.2 °F 96.2 °F 66.2 °F 41% 29.82 in 10.0 mi SW 15.0 mph 24.2 mph N/A   Unknown
6:35 PM 91.4 °F 94.0 °F 66.2 °F 43% 29.82 in 10.0 mi SW 16.1 mph 21.9 mph N/A   Unknown
6:55 PM 91.4 °F 94.0 °F 66.2 °F 43% 29.82 in 10.0 mi SW 15.0 mph 18.4 mph N/A   Unknown
7:15 PM 91.4 °F 94.0 °F 66.2 °F 43% 29.81 in 10.0 mi SW 13.8 mph - N/A   Unknown
7:35 PM 91.4 °F 95.4 °F 68.0 °F 46% 29.81 in 10.0 mi SW 11.5 mph 17.3 mph N/A   Unknown
7:55 PM 89.6 °F 93.4 °F 68.0 °F 49% 29.81 in 10.0 mi SW 8.1 mph - N/A   Unknown
8:15 PM 89.6 °F 93.4 °F 68.0 °F 49% 29.80 in 10.0 mi SW 5.8 mph - N/A   Unknown
8:35 PM 87.8 °F 91.4 °F 68.0 °F 52% 29.80 in 10.0 mi SSW 5.8 mph - N/A   Unknown
8:55 PM 87.8 °F 91.4 °F 68.0 °F 52% 29.79 in 10.0 mi SSW 3.5 mph - N/A   Unknown
9:15 PM 86.0 °F 90.4 °F 69.8 °F 58% 29.79 in 10.0 mi South 3.5 mph - N/A   Unknown
9:35 PM 84.2 °F 88.4 °F 69.8 °F 62% 29.79 in 10.0 mi Calm Calm - N/A   Unknown
9:56 PM 84.2 °F 88.4 °F 69.8 °F 62% 29.79 in 10.0 mi South 3.5 mph - N/A   Clear
10:15 PM 84.2 °F 87.3 °F 68.0 °F 58% 29.79 in 10.0 mi SSW 3.5 mph - N/A   Clear
10:35 PM 84.2 °F 87.3 °F 68.0 °F 58% 29.78 in 10.0 mi SSW 4.6 mph - N/A   Clear
10:55 PM 84.2 °F 87.3 °F 68.0 °F 58% 29.78 in 10.0 mi SW 5.8 mph - N/A   Clear
11:15 PM 82.4 °F 85.4 °F 68.0 °F 62% 29.79 in 10.0 mi SW 6.9 mph - N/A   Clear
11:35 PM 82.4 °F 85.4 °F 68.0 °F 62% 29.78 in 10.0 mi SW 8.1 mph - N/A   Clear
11:55 PM 82.4 °F 85.4 °F 68.0 °F 62% 29.78 in 10.0 mi SW 9.2 mph - N/A   Clear